Regional Weather Roundup
Issued by NWS

Home | Current Version | Previous Version | Graphics & Text | Print | Product List | Glossary On
Versions: 1 2 3 4 5 6 7 8 9 10 11 12 13 14 15 16 17 18 19 20 21 22 23 24 25 26 27 28 29 30 31 32 33 34 35 36 37 38 39 40 41 42 43 44 45 46 47 48 49 50
000
ASUS45 KABQ 300410
RWRNM
NEW MEXICO REGIONAL WEATHER ROUNDUP
NATIONAL WEATHER SERVICE ALBUQUERQUE NM
1000 PM MDT FRI MAY 29 2015

NOTE: "FAIR" MEANS FEW OR NO CLOUDS BELOW 12,000 FEET AGL WITH NO
       SIGNIFICANT WEATHER OR OBSTRUCTIONS TO VISION.

      THIS PRODUCT IS RELEASED AS TWO VERSIONS.  ONE VERSION NEAR
      THE TOP OF THE HOUR CONTAINING PRELIMINARY DATA FROM ALBUQUERQUE
      AND OTHER STATIONS.  A FINAL VERSION WITH ADDITIONAL DATA IS
      ISSUED ABOUT 10 MINUTES AFTER THE HOUR.

NMZ501-503-504-510>518-300500-
NORTHWEST PLATEAU/NORTHCENTRAL MOUNTAINS

CITY           SKY/WX    TMP DP  RH WIND       PRES   REMARKS
FARMINGTON     CLEAR     61  25  25 N7        30.15R
LOS ALAMOS     PTCLDY    62  18  18 W10       30.27R
SANTA FE       PTCLDY    61  18  18 CALM      30.20R
TAOS           CLEAR     57  36  44 E14G23    30.27R
ANGEL FIRE     MOCLDY    50  39  66 SE3       30.39R

$$
NMZ402-403-502-505>509-300500-
WESTCENTRAL MOUNTAINS/SOUTHWEST MOUNTAINS

CITY           SKY/WX    TMP DP  RH WIND       PRES   REMARKS
GALLUP         PTCLDY    55  29  36 SE3       30.24R
GRANTS         PTCLDY    58  30  34 N3        30.26R
SILVER CITY      N/A     61  18  18 N10       30.13R

$$
NMZ407-409-411-412-300500-
SOUTHERN DESERTS

CITY           SKY/WX    TMP DP  RH WIND       PRES   REMARKS
LORDSBURG      FAIR      72  19  14 W5        30.02R
DEMING         CLEAR     76  19  11 NW7       30.02R
LAS CRUCES     CLEAR     73  20  13 W10       30.03R
HOLLOMAN AFB   PTCLDY    75  26  16 NE6       29.98R
ALAMOGORDO     CLEAR     77  28  16 NE9       30.00R
T OR C         PTCLDY    77  29  17 N15       30.06R

$$
NMZ519>523-300500-
CENTRAL VALLEYS/CENTRAL HIGHLANDS

CITY           SKY/WX    TMP DP  RH WIND       PRES   REMARKS
ALBUQUERQUE    PTCLDY    72  32  23 VRB3      30.15R
DOUBLE EAGLE   CLEAR     59  36  41 NW10      30.19R
MORIARTY ARPT  FAIR      60  34  38 CALM      30.22R
CLINES CORNERS PTCLDY    55  45  68 E17G28    30.28R
BELEN          FAIR      63  33  33 NW8       30.14R
SOCORRO        FAIR      71  32  24 N10G17    30.10R

$$
NMZ524>526-539-540-300500-
SOUTHCENTRAL MOUNTAINS

CITY           SKY/WX    TMP DP  RH WIND       PRES   REMARKS
RUIDOSO        MOCLDY    64  32  29 CALM      30.27R

$$
NMZ527>531-300500-
NORTHEAST HIGHLANDS/NORTHEAST PLAINS

CITY           SKY/WX    TMP DP  RH WIND       PRES   REMARKS
LAS VEGAS      CLOUDY    53  47  79 NE9       30.32R
RATON          CLOUDY    50  44  80 E9        30.30R
CLAYTON        CLOUDY    55  49  80 N20       30.26R

$$
NMZ532>537-300500-
EASTCENTRAL PLAINS

CITY           SKY/WX    TMP DP  RH WIND       PRES   REMARKS
TUCUMCARI      CLOUDY    60  56  86 NE8       30.16R
CANNON AFB     MOCLDY    59  54  85 N9        30.14R
CLOVIS AIRPORT CLOUDY    57  54  88 NE9       30.13R

$$
NMZ028-029-538-300500-
SOUTHEAST PLAINS

CITY           SKY/WX    TMP DP  RH WIND       PRES   REMARKS
ROSWELL        MOCLDY    73  53  49 E12       30.04R
ARTESIA        PTCLDY    77  57  50 SE13      30.02R
CARLSBAD       CLEAR     74  55  51 E7        30.01R
HOBBS          CLOUDY    64  48  55 NE22G33   30.07R


$$



USA.gov is the U.S. government's official web portal to all federal, state and local government web resources and services.